Location: Casco Volunteer Fire Department
(44.5576°N, 87.6146°W)
Time: 05:14:32
(UTC+00:00)

Cosmos 1934 Rocket - Visible Passes

Search period start: 19 April 2026 00:00
Search period end: 29 April 2026 00:00
Orbit: 937 x 999 km, 83.0° (Epoch: 18 April)

Date Brightness Start Highest point End Pass type
(mag) Time Alt. Az. Time Alt. Az. Time Alt. Az.
19 Apr 4.5 02:24:34 27° SE 02:27:09 39° E 02:32:52 10° NNE visible
19 Apr 5.3 04:09:00 21° WSW 04:12:23 35° WNW 04:18:01 10° N visible
20 Apr 3.9 02:46:41 29° SSE 02:50:00 67° E 02:56:10 10° NNE visible
20 Apr 6.0 04:31:07 10° WSW 04:35:46 21° WNW 04:40:23 10° NNW visible
21 Apr 5.4 01:24:35 10° ESE 01:28:32 18° E 01:32:28 10° NE visible
21 Apr 4.1 03:08:42 22° SSW 03:13:00 75° W 03:19:14 10° N visible
21 Apr 6.5 04:56:45 10° W 04:59:20 13° WNW 05:01:54 10° NW visible
22 Apr 4.8 01:46:12 11° SE 01:51:11 30° E 01:56:26 10° NNE visible
22 Apr 4.9 03:30:37 12° SW 03:36:09 45° WNW 03:42:04 10° N visible
23 Apr 4.2 02:08:00 10° SSE 02:13:57 50° E 02:19:55 10° NNE visible
23 Apr 5.8 03:54:13 10° SW 03:59:26 27° WNW 04:04:38 10° NNW visible
24 Apr 3.9 02:30:37 10° S 02:36:53 85° E 02:43:05 10° N visible
24 Apr 6.4 04:19:05 10° WSW 04:22:54 17° WNW 04:26:42 10° NNW visible
25 Apr 5.1 01:10:32 10° SE 01:15:14 23° E 01:19:52 10° NE visible
25 Apr 4.5 02:53:48 10° SSW 02:59:57 59° WNW 03:06:03 10° N visible
26 Apr 4.5 01:32:16 10° SSE 01:37:57 38° E 01:43:34 10° NNE visible
26 Apr 5.4 03:17:31 10° SW 03:23:09 35° WNW 03:28:46 10° N visible
27 Apr 4.0 01:54:38 10° S 02:00:48 65° E 02:06:53 10° NNE visible
27 Apr 6.2 03:41:54 10° WSW 03:46:31 21° WNW 03:51:08 10° NNW visible
28 Apr 4.1 02:17:33 10° SSW 02:23:47 76° W 02:29:58 10° N visible
28 Apr 6.7 04:07:31 10° W 04:10:05 13° WNW 04:12:39 10° NW visible
